[[{"header":{"parameterUnit":"m.s-1","parameterCategory":1,"la1":30.2991,"la2":30.254,"lo1":-89.0895,"lo2":-89.0444,"dy":0.0017,"dx":0.0017,"nx":28,"ny":28,"refTime":"2025-04-12T03:00:00:Z","depth":0,"parameterNumber":2,"parameterNumberName":"U-component_of_WINDS"},"data":[0,0,0,0,0,0,0,0,0,0,0,0,0,0,0,0,0,0,0,0,0,0,0,0,0,0,0,0,0,0,0,0,0,0,0,0,0,0,0,0,0,0,0,0,0,0,0,0,0,0,0,0,0,0,0,0,0,0,-0.1203,-0.1204,0,-0.1267,-0.1268,-0.1268,-0.1298,-0.1297,-0.1297,-0.1297,-0.1363,-0.1364,-0.1366,0,0,0,0,0,0,0,0,0,0,0,0,0,-0.1105,-0.1107,-0.1203,-0.1204,-0.1205,-0.1267,-0.1268,-0.1268,-0.1298,-0.1297,-0.1297,-0.1297,-0.1362,-0.1364,-0.1366,0,0,0,0,0,0,0,0,0,0,0,0,0,-0.1156,-0.1107,-0.1203,-0.1227,-0.1229,-0.1267,-0.1268,-0.1269,-0.1298,-0.1297,-0.1297,-0.1297,-0.1361,-0.1364,-0.1366,-0.1385,0,0,-0.1375,-0.1376,0,0,0,0,0,0,0,0,-0.1153,-0.116,-0.1222,-0.1225,-0.1228,-0.1274,-0.1257,-0.1308,-0.1298,-0.1272,-0.1297,-0.1297,-0.1333,-0.1338,-0.135,-0.1388,-0.1391,-0.1375,-0.1377,-0.1378,-0.1378,0,0,0,0,0,0,0,-0.115,-0.1157,-0.1228,-0.1223,-0.1227,-0.1234,-0.1241,-0.1267,-0.1302,-0.1274,-0.1276,-0.1283,-0.1335,-0.1348,-0.1352,-0.1392,-0.1375,-0.1377,-0.1379,-0.138,-0.1446,-0.1446,0,0,0,0,0,0,-0.1142,-0.1154,-0.1226,-0.123,-0.119,-0.1235,-0.1244,-0.1259,-0.1302,-0.1308,-0.1283,-0.1284,-0.1343,-0.1349,-0.1354,-0.1378,-0.1378,-0.138,-0.1382,-0.1446,-0.1446,-0.1446,0,0,0,0,0,0,-0.114,-0.1149,-0.1224,-0.1193,-0.1203,-0.1237,-0.1255,-0.1261,-0.1274,-0.1309,-0.1315,-0.129,-0.1343,-0.1351,-0.1377,-0.1381,-0.1381,-0.1384,-0.1446,-0.1446,-0.1446,-0.1426,0,0,0,0,0,0,-0.1137,-0.1148,-0.1155,-0.1193,-0.1204,-0.1245,-0.1255,-0.1262,-0.1278,-0.128,-0.1317,-0.1323,-0.1344,-0.1373,-0.1379,-0.1385,-0.1386,-0.1446,-0.1446,-0.1446,-0.1426,-0.1425,-0.1425,0,0,0,0,0,-0.1134,-0.1147,-0.1156,-0.1164,-0.1215,-0.1245,-0.1252,-0.1276,-0.1279,-0.1286,-0.1309,-0.1322,-0.1379,-0.1375,-0.1383,-0.1389,-0.1446,-0.1446,-0.1446,-0.1427,-0.1426,-0.1425,0,0,0,0,0,0,-0.111,-0.1153,-0.1162,-0.1189,-0.1213,-0.125,-0.1261,-0.1274,-0.1298,-0.1299,-0.1327,-0.1335,-0.1359,-0.1376,-0.1371,-0.1408,-0.1413,-0.1415,-0.1396,-0.1395,-0.1394,-0.139,-0.1388,0,0,0,0,0,-0.1107,-0.1129,-0.1165,-0.1185,-0.1197,-0.1226,-0.1241,-0.1257,-0.1283,-0.1294,-0.1318,-0.1343,-0.1367,-0.1382,-0.1406,-0.1429,-0.1437,-0.1437,-0.1436,-0.1435,-0.1436,-0.1449,-0.1449,-0.1447,-0.1447,-0.1447,0,0,-0.1103,-0.1129,-0.1141,-0.1181,-0.1202,-0.1223,-0.1235,-0.1257,-0.1273,-0.1297,-0.1323,-0.1342,-0.1372,-0.1396,-0.1408,-0.1412,-0.1438,-0.1435,-0.1434,-0.1436,-0.1449,-0.1449,-0.1449,-0.1448,-0.1448,-0.1448,0,0,-0.1106,-0.1128,-0.1147,-0.1167,-0.1198,-0.1218,-0.1222,-0.1257,-0.127,-0.1297,-0.1315,-0.1334,-0.1374,-0.1394,-0.141,-0.1419,-0.1431,-0.1425,-0.1421,-0.1433,-0.1433,-0.1433,-0.1436,-0.1436,-0.1427,-0.1427,-0.1427,0,-0.1097,-0.113,-0.1154,-0.1175,-0.1192,-0.1214,-0.1232,-0.1251,-0.1288,-0.1299,-0.1302,-0.1352,-0.1374,-0.1403,-0.1405,-0.1417,-0.1422,-0.1422,-0.1431,-0.1431,-0.1432,-0.1435,-0.1436,-0.1426,-0.1426,-0.1426,-0.1426,0,-0.1117,-0.1139,-0.115,-0.1185,-0.1203,-0.1222,-0.1249,-0.1264,-0.1278,-0.1297,-0.1323,-0.1349,-0.1378,-0.1386,-0.14,-0.1417,-0.1418,-0.1425,-0.1431,-0.1431,-0.1434,-0.1435,-0.1424,-0.1425,-0.1425,-0.1425,0,0,-0.1108,-0.1155,-0.1159,-0.1174,-0.121,-0.1228,-0.1247,-0.1276,-0.1287,-0.1312,-0.1329,-0.1362,-0.1369,-0.1386,-0.1402,-0.1413,-0.1417,-0.1419,-0.142,-0.1418,-0.1436,-0.143,-0.1431,-0.1425,-0.1426,-0.1426,-0.1433,0,-0.1116,-0.1153,-0.1174,-0.1202,-0.1223,-0.1243,-0.1261,-0.1284,-0.1302,-0.1321,-0.1341,-0.1363,-0.1371,-0.1382,-0.1393,-0.1414,-0.1421,-0.1414,-0.1441,-0.1442,-0.1433,-0.1433,-0.1427,-0.1432,-0.1435,-0.1435,-0.1435,0,-0.113,-0.1154,-0.1184,-0.1216,-0.1225,-0.124,-0.1267,-0.1286,-0.1312,-0.1324,-0.1343,-0.1359,-0.138,-0.1383,-0.1412,-0.1407,-0.1419,-0.1431,-0.1431,-0.1435,-0.1439,-0.1436,-0.1435,-0.1436,-0.1437,-0.1437,-0.1437,0,-0.112,-0.1159,-0.1182,-0.1195,-0.1233,-0.1243,-0.1259,-0.1285,-0.13,-0.1323,-0.1333,-0.1359,-0.1372,-0.1391,-0.1413,-0.1414,-0.144,-0.1445,-0.145,-0.1449,-0.1455,-0.1454,-0.1456,-0.1462,-0.1462,-0.1462,-0.1462,0,-0.1127,-0.1144,-0.1178,-0.1192,-0.1212,-0.1236,-0.1255,-0.1272,-0.1295,-0.1312,-0.1331,-0.1347,-0.1375,-0.1394,-0.1411,-0.1432,-0.1438,-0.1448,-0.1453,-0.1447,-0.1445,-0.1455,-0.1455,-0.1463,-0.1463,-0.1463,-0.1463,0,-0.1119,-0.1143,-0.1169,-0.1202,-0.1211,-0.1224,-0.1252,-0.1266,-0.1284,-0.1306,-0.1312,-0.1341,-0.1364,-0.1387,-0.1419,-0.143,-0.145,-0.1456,-0.1441,-0.1444,-0.1447,-0.1446,-0.1455,-0.1457,-0.1462,-0.1462,-0.1462,0,-0.1122,-0.1136,-0.117,-0.1183,-0.1199,-0.1219,-0.1235,-0.1258,-0.1273,-0.1303,-0.1313,-0.1338,-0.1359,-0.1394,-0.1418,-0.1441,-0.1448,-0.1449,-0.1452,-0.1445,-0.1448,-0.1447,-0.1448,-0.1449,-0.1448,-0.1448,-0.1448,0,-0.1124,-0.1135,-0.1156,-0.1181,-0.1198,-0.1219,-0.1241,-0.125,-0.1278,-0.1294,-0.1317,-0.1333,-0.1365,-0.1389,-0.1415,-0.1431,-0.1444,-0.1447,-0.1449,-0.1443,-0.1434,-0.1439,-0.1439,-0.1447,-0.1447,-0.1447,-0.1447,-0.1447,-0.1122,-0.1135,-0.1161,-0.1183,-0.1202,-0.1221,-0.1235,-0.1255,-0.1275,-0.1303,-0.1315,-0.1339,-0.1363,-0.14,-0.1415,-0.1434,-0.1437,-0.1441,-0.1442,-0.1442,-0.144,-0.1431,-0.1438,-0.1439,-0.1439,-0.1439,-0.1439,0,-0.1125,-0.1142,-0.1163,-0.1192,-0.1209,-0.122,-0.1244,-0.1258,-0.1278,-0.13,-0.132,-0.1346,-0.1369,-0.1393,-0.1417,-0.1427,-0.1433,-0.1432,-0.1432,-0.1435,-0.1436,-0.1431,-0.1427,-0.1427,-0.1427,-0.1427,-0.1427,-0.1427,-0.1129,-0.1151,-0.1164,-0.1195,-0.1212,-0.1235,-0.1248,-0.1265,-0.1283,-0.1311,-0.133,-0.1346,-0.1368,-0.1394,-0.1415,-0.1421,-0.1429,-0.1426,-0.1434,-0.1434,-0.1435,-0.1436,-0.1432,-0.1428,-0.1428,-0.1432,-0.1432,-0.1432]},{"header":{"parameterUnit":"m.s-1","parameterCategory":1,"la1":30.2991,"la2":30.254,"lo1":-89.0895,"lo2":-89.0444,"dy":0.0017,"dx":0.0017,"nx":28,"ny":28,"refTime":"2025-04-12T03:00:00:Z","depth":0,"parameterNumber":3,"parameterNumberName":"V-component_of_WINDS"},"data":[0,0,0,0,0,0,0,0,0,0,0,0,0,0,0,0,0,0,0,0,0,0,0,0,0,0,0,0,0,0,0,0,0,0,0,0,0,0,0,0,0,0,0,0,0,0,0,0,0,0,0,0,0,0,0,0,0,0,-3.0199,-3.02,0,-3.0309,-3.031,-3.0311,-3.0275,-3.0273,-3.027,-3.0268,-3.0377,-3.0382,-3.0387,0,0,0,0,0,0,0,0,0,0,0,0,0,-2.9954,-2.9959,-3.0199,-3.02,-3.0202,-3.0309,-3.031,-3.0312,-3.0275,-3.0272,-3.027,-3.0267,-3.0376,-3.0382,-3.0388,0,0,0,0,0,0,0,0,0,0,0,0,0,-3.0062,-2.9961,-3.0199,-3.0196,-3.0197,-3.0309,-3.031,-3.0312,-3.0276,-3.0272,-3.0269,-3.0265,-3.0374,-3.0381,-3.0389,-3.0508,0,0,-3.0412,-3.0416,0,0,0,0,0,0,0,0,-3.0056,-3.0071,-3.0195,-3.0197,-3.0198,-3.0275,-3.0264,-3.0378,-3.0277,-3.0246,-3.0268,-3.0264,-3.0346,-3.0356,-3.0384,-3.0513,-3.0517,-3.0413,-3.0418,-3.0421,-3.0423,0,0,0,0,0,0,0,-3.0049,-3.0066,-3.0242,-3.0197,-3.0199,-3.0189,-3.02,-3.0286,-3.0314,-3.0248,-3.0246,-3.026,-3.0346,-3.0377,-3.0386,-3.0519,-3.0413,-3.042,-3.0424,-3.0427,-3.0751,-3.0755,0,0,0,0,0,0,-3.0041,-3.006,-3.0239,-3.0246,-3.0117,-3.0196,-3.0209,-3.0254,-3.0313,-3.0319,-3.0263,-3.0258,-3.0365,-3.0377,-3.039,-3.0534,-3.0421,-3.0428,-3.0432,-3.0748,-3.0752,-3.0757,0,0,0,0,0,0,-3.0036,-3.0057,-3.0234,-3.0152,-3.0174,-3.0204,-3.0255,-3.0258,-3.0288,-3.0324,-3.0329,-3.0289,-3.0363,-3.0379,-3.0479,-3.0537,-3.0432,-3.0439,-3.0743,-3.0749,-3.0755,-3.0822,0,0,0,0,0,0,-3.0029,-3.0055,-3.0102,-3.0154,-3.0179,-3.0323,-3.0258,-3.0262,-3.0302,-3.0297,-3.035,-3.0356,-3.0361,-3.0468,-3.0487,-3.0546,-3.0445,-3.0738,-3.0746,-3.0753,-3.0815,-3.083,-3.0842,0,0,0,0,0,-3.002,-3.0115,-3.0104,-3.0126,-3.0237,-3.0326,-3.034,-3.0346,-3.0307,-3.0353,-3.0376,-3.0354,-3.0528,-3.0478,-3.0499,-3.0562,-3.0734,-3.0743,-3.0752,-3.0809,-3.0827,-3.0842,0,0,0,0,0,0,-3.0068,-3.0122,-3.011,-3.0225,-3.0272,-3.032,-3.0378,-3.0365,-3.0422,-3.0414,-3.0418,-3.043,-3.0533,-3.0557,-3.0501,-3.068,-3.0625,-3.0639,-3.0661,-3.0678,-3.0692,-3.0684,-3.0451,0,0,0,0,0,-3.0092,-3.0161,-3.0204,-3.0301,-3.0325,-3.0348,-3.0387,-3.0387,-3.0435,-3.0454,-3.0484,-3.053,-3.0595,-3.0638,-3.07,-3.0818,-3.0829,-3.0871,-3.0885,-3.0896,-3.0908,-3.0972,-3.0992,-3.0786,-3.0786,-3.0786,0,0,-3.0142,-3.018,-3.0223,-3.0312,-3.0347,-3.0418,-3.0364,-3.0441,-3.0493,-3.0465,-3.0562,-3.0586,-3.0637,-3.0747,-3.0797,-3.0771,-3.0967,-3.0907,-3.0916,-3.0922,-3.0984,-3.1003,-3.102,-3.0792,-3.0791,-3.079,0,0,-3.0269,-3.0305,-3.039,-3.0428,-3.0483,-3.0498,-3.0519,-3.057,-3.0585,-3.0682,-3.0663,-3.0724,-3.0836,-3.0874,-3.0908,-3.1051,-3.1032,-3.1071,-3.1142,-3.1206,-3.1222,-3.1236,-3.1288,-3.1306,-3.1082,-3.1082,-3.1082,0,-3.0324,-3.043,-3.0435,-3.0514,-3.0554,-3.0533,-3.062,-3.0655,-3.0728,-3.0755,-3.0724,-3.0865,-3.0898,-3.1017,-3.1052,-3.108,-3.1103,-3.1065,-3.1219,-3.1234,-3.1247,-3.1296,-3.1315,-3.1087,-3.1086,-3.1086,-3.1085,0,-3.0495,-3.0569,-3.0631,-3.0704,-3.075,-3.0832,-3.0849,-3.0895,-3.0892,-3.091,-3.1009,-3.1049,-3.1118,-3.1146,-3.1143,-3.1265,-3.1247,-3.1218,-3.1163,-3.1271,-3.1317,-3.1336,-3.1093,-3.1091,-3.109,-3.1089,0,0,-3.0655,-3.073,-3.0753,-3.0786,-3.0846,-3.0903,-3.0984,-3.1054,-3.1093,-3.1144,-3.1212,-3.1307,-3.1281,-3.132,-3.1321,-3.1376,-3.1487,-3.134,-3.1341,-3.1367,-3.1625,-3.1646,-3.1668,-3.1475,-3.1479,-3.1482,-3.162,0,-3.0788,-3.0932,-3.0939,-3.107,-3.1138,-3.112,-3.119,-3.1235,-3.1253,-3.1314,-3.1333,-3.1402,-3.1362,-3.1385,-3.1439,-3.1462,-3.1539,-3.1452,-3.1538,-3.1541,-3.1526,-3.1692,-3.1715,-3.1844,-3.1638,-3.1641,-3.1644,0,-3.0962,-3.102,-3.1158,-3.1209,-3.1238,-3.1302,-3.1366,-3.1424,-3.1474,-3.1483,-3.1527,-3.152,-3.1603,-3.1545,-3.1658,-3.1599,-3.1634,-3.1651,-3.1656,-3.1664,-3.1599,-3.1705,-3.1885,-3.1905,-3.1672,-3.167,-3.1668,0,-3.1066,-3.1178,-3.1275,-3.1304,-3.1366,-3.1411,-3.1439,-3.1485,-3.1527,-3.1583,-3.161,-3.1674,-3.1709,-3.1759,-3.1769,-3.1726,-3.1883,-3.1825,-3.1893,-3.1893,-3.1927,-3.1925,-3.2116,-3.1949,-3.1949,-3.1949,-3.1948,0,-3.1213,-3.1298,-3.1323,-3.1383,-3.1477,-3.1485,-3.1578,-3.1602,-3.1644,-3.1707,-3.1694,-3.1754,-3.1764,-3.1826,-3.1834,-3.1927,-3.1943,-3.1953,-3.1954,-3.1954,-3.1953,-3.1978,-3.1969,-3.1954,-3.1953,-3.1952,-3.1951,0,-3.1345,-3.1365,-3.147,-3.1521,-3.1535,-3.1603,-3.1646,-3.1703,-3.1721,-3.1801,-3.1821,-3.1848,-3.192,-3.1936,-3.2021,-3.2026,-3.2137,-3.2129,-3.2121,-3.212,-3.2187,-3.218,-3.24,-3.243,-3.2244,-3.2246,-3.2247,0,-3.1439,-3.1504,-3.1562,-3.1605,-3.1635,-3.1703,-3.1746,-3.1756,-3.1801,-3.1863,-3.1912,-3.1983,-3.2041,-3.2157,-3.2184,-3.2249,-3.2243,-3.2315,-3.2252,-3.2251,-3.2244,-3.2241,-3.2247,-3.2327,-3.2329,-3.2331,-3.2332,0,-3.1602,-3.1609,-3.1672,-3.1739,-3.1791,-3.1843,-3.1893,-3.1929,-3.1945,-3.1996,-3.207,-3.2115,-3.2203,-3.2274,-3.2339,-3.2366,-3.2352,-3.2352,-3.2371,-3.2372,-3.2365,-3.237,-3.2154,-3.2347,-3.2345,-3.2344,-3.2344,-3.2343,-3.1718,-3.1776,-3.1826,-3.1897,-3.1936,-3.1983,-3.204,-3.2065,-3.2128,-3.2201,-3.2202,-3.2284,-3.2332,-3.2418,-3.245,-3.2513,-3.249,-3.2518,-3.2525,-3.2532,-3.2538,-3.2355,-3.2525,-3.2524,-3.2524,-3.2524,-3.2523,0,-3.1881,-3.1913,-3.1978,-3.205,-3.2105,-3.2089,-3.2143,-3.2191,-3.2263,-3.2309,-3.2367,-3.2453,-3.2521,-3.2554,-3.2622,-3.2666,-3.2661,-3.2683,-3.268,-3.2687,-3.2554,-3.2531,-3.2686,-3.2686,-3.2686,-3.2686,-3.2686,-3.2686,-3.1973,-3.207,-3.2083,-3.2199,-3.2229,-3.231,-3.2343,-3.2387,-3.2424,-3.2521,-3.2579,-3.26,-3.2641,-3.2711,-3.2774,-3.2781,-3.2807,-3.2832,-3.2837,-3.2713,-3.2696,-3.268,-3.2659,-3.2838,-3.2838,-3.2964,-3.2966,-3.2966]}]]